Weather History for Bradford, PA

Change the Weather History Date:

Monday, April 7, 2014

  Actual Average Record
Temperature  
Mean Temperature 40 °F 41 °F  
Max Temperature 43 °F 51 °F 79 °F (1991)
Min Temperature 36 °F 30 °F 6 °F (1982)
Degree Days  
Heating Degree Days 25 19  
Month to date heating degree days 173 143  
Since 1 July heating degree days 7016 6750  
Cooling Degree Days 0 0  
Month to date cooling degree days 0 0  
Year to date cooling degree days 0 0  
Moisture  
Dew Point 32 °F    
Average Humidity 66    
Maximum Humidity 92    
Minimum Humidity 39    
Precipitation  
Precipitation 0.77 in 0.12 in 0.84 in (1983)
Month to date precipitation 1.66 0.85  
Year to date precipitation 7.19 9.86  
Sea Level Pressure  
Sea Level Pressure 29.77 in    
Wind  
Wind Speed 11 mph (SE)    
Max Wind Speed 22 mph    
Max Gust Speed 31 mph    
Visibility 6 miles    
Events Rain , Thunderstorm    
T = Trace of Precipitation, MM = Missing Value Source: NWS Daily Summary

Daily Weather History Graph

Daily Weather History Graph

Search for Another Location

Airport:

Trip Planner

Search our weather history database for the weather conditions in past years. The results will help you decide how hot, cold, wet, or windy it might be!

Date:

Astronomy

Apr. 07, 2014 Rise Set
Actual Time 6:47 AM EDT 7:46 PM EDT
Civil Twilight 6:19 AM EDT 8:15 PM EDT
Nautical Twilight 5:45 AM EDT 8:48 PM EDT
Astronomical Twilight 5:10 AM EDT 9:24 PM EDT
Moon 12:39 PM EDT (4/7) 2:25 AM EDT (4/7)
Length of Visible Light 13h 56m
Length of Day
12h 59m
First Quarter, 53% of the Moon is Illuminated
Apr 7
First Quarter
Apr 15
Full
Apr 22
Last Quarter
Apr 29
New
May 6
First Quarter

Hourly Weather History & Observations

Time (EDT) Temp. Windchill Dew Point Humidity Pressure Visibility Wind Dir Wind Speed Gust Speed Precip Events Conditions
12:53 AM 39.0 °F 33.4 °F 19.0 °F 45% 30.08 in 10.0 mi SE 8.1 mph - N/A   Clear
1:53 AM 39.9 °F 36.7 °F 17.1 °F 40% 30.06 in 10.0 mi SSE 4.6 mph - N/A   Clear
2:53 AM 37.0 °F 33.3 °F 18.0 °F 46% 30.05 in 10.0 mi SE 4.6 mph - N/A   Clear
3:53 AM 37.0 °F 30.4 °F 19.0 °F 48% 30.02 in 10.0 mi SE 9.2 mph - N/A   Clear
4:53 AM 37.0 °F 31.0 °F 19.9 °F 50% 30.00 in 10.0 mi SE 8.1 mph - N/A   Clear
5:53 AM 37.9 °F 32.1 °F 19.0 °F 47% 29.99 in 10.0 mi SE 8.1 mph - N/A   Clear
6:53 AM 39.9 °F 33.4 °F 18.0 °F 41% 30.00 in 10.0 mi SSE 10.4 mph - N/A   Clear
7:53 AM 39.9 °F 34.5 °F 19.0 °F 43% 30.01 in 10.0 mi SE 8.1 mph - N/A   Clear
8:53 AM 41.0 °F 35.2 °F 19.0 °F 41% 29.99 in 10.0 mi SSE 9.2 mph - N/A   Clear
9:53 AM 41.0 °F 33.5 °F 19.0 °F 41% 29.98 in 10.0 mi SSE 13.8 mph 21.9 mph N/A   Mostly Cloudy
10:53 AM 42.1 °F 36.1 °F 19.0 °F 40% 29.96 in 10.0 mi SE 10.4 mph - N/A   Overcast
11:53 AM 43.0 °F 37.2 °F 21.0 °F 42% 29.93 in 10.0 mi SSE 10.4 mph 20.7 mph N/A   Overcast
12:53 PM 39.0 °F 31.0 °F 32.0 °F 76% 29.94 in 4.0 mi SSE 13.8 mph 23.0 mph 0.00 in Rain Light Rain
1:01 PM 37.9 °F 31.5 °F 33.1 °F 83% 29.90 in 2.5 mi SSE 9.2 mph - 0.01 in Rain Light Rain
1:06 PM 37.9 °F 30.0 °F 33.1 °F 83% 29.89 in 1.8 mi ESE 12.7 mph - 0.03 in Rain Rain
1:21 PM 37.0 °F 28.9 °F 34.0 °F 89% 29.88 in 2.5 mi SE 12.7 mph - 0.05 in Rain Rain
1:28 PM 37.0 °F 31.0 °F 34.0 °F 89% 29.88 in 2.5 mi ESE 8.1 mph 18.4 mph 0.07 in Rain Rain
1:35 PM 37.9 °F 30.9 °F 34.0 °F 86% 29.88 in 3.0 mi ESE 10.4 mph - 0.08 in Rain Light Rain
1:53 PM 37.9 °F 31.5 °F 34.0 °F 86% 29.88 in 3.0 mi East 9.2 mph - 0.12 in Rain Rain
2:02 PM 37.9 °F 30.9 °F 35.1 °F 89% 29.84 in 2.0 mi East 10.4 mph - 0.02 in Rain Rain
2:04 PM 37.0 °F 29.8 °F 34.0 °F 89% 29.84 in 1.8 mi East 10.4 mph - 0.03 in Rain Rain
2:20 PM 37.9 °F 29.2 °F 35.1 °F 89% 29.84 in 2.0 mi ESE 15.0 mph 19.6 mph 0.07 in Rain Rain
2:29 PM 37.9 °F 32.1 °F 34.0 °F 86% 29.83 in 1.8 mi ESE 8.1 mph - 0.09 in Rain Rain
2:39 PM 37.9 °F 30.5 °F 35.1 °F 89% 29.82 in 1.8 mi ESE 11.5 mph - 0.11 in Rain Rain
2:46 PM 37.9 °F 30.5 °F 35.1 °F 89% 29.82 in 2.5 mi ESE 11.5 mph - 0.12 in Rain Light Rain
2:53 PM 37.0 °F 29.3 °F 34.0 °F 89% 29.85 in 1.8 mi ESE 11.5 mph - 0.12 in Rain Light Rain
3:05 PM 37.9 °F 30.5 °F 35.1 °F 89% 29.81 in 2.5 mi ESE 11.5 mph - 0.02 in Rain Light Rain
3:13 PM 37.9 °F 29.2 °F 35.1 °F 89% 29.79 in 3.0 mi ESE 15.0 mph - 0.03 in Rain Light Rain
4:53 PM 37.9 °F 30.9 °F 35.1 °F 89% 29.73 in 9.0 mi ESE 10.4 mph 20.7 mph 0.01 in Rain Light Rain
5:11 PM 39.0 °F 30.6 °F 35.1 °F 86% 29.68 in 2.5 mi SE 15.0 mph - 0.00 in Rain Light Rain
5:33 PM 39.0 °F 31.4 °F 36.0 °F 89% 29.65 in 1.5 mi SE 12.7 mph 23.0 mph 0.02 in Rain Light Rain
5:39 PM 39.0 °F 31.4 °F 36.0 °F 89% 29.65 in 3.0 mi SE 12.7 mph 21.9 mph 0.02 in Rain Light Rain
5:53 PM 39.0 °F 29.6 °F 36.0 °F 89% 29.66 in 10.0 mi SE 18.4 mph 26.5 mph 0.02 in Rain Light Rain
6:53 PM 39.0 °F 30.3 °F 36.0 °F 89% 29.62 in 10.0 mi SE 16.1 mph 24.2 mph 0.00 in   Overcast
7:53 PM 39.9 °F 31.8 °F 37.0 °F 89% 29.60 in 5.0 mi SE 15.0 mph 24.2 mph 0.05 in Rain Light Rain
8:41 PM 39.9 °F 31.4 °F 37.0 °F 89% 29.55 in 8.0 mi SSE 16.1 mph 24.2 mph 0.00 in Rain Light Rain
8:53 PM 39.9 °F 31.8 °F 37.0 °F 89% 29.56 in 9.0 mi SE 15.0 mph - 0.00 in Rain Light Rain
9:31 PM 39.9 °F 32.1 °F 37.0 °F 89% 29.51 in 7.0 mi SE 13.8 mph 23.0 mph 0.01 in Rain Light Rain
9:53 PM 39.9 °F 30.8 °F 37.0 °F 89% 29.50 in 10.0 mi SE 18.4 mph 25.3 mph 0.01 in Rain Light Rain
10:05 PM 39.9 °F 31.8 °F 37.0 °F 89% 29.51 in 7.0 mi SSE 15.0 mph 20.7 mph 0.01 in Rain , Thunderstorm Light Thunderstorms and Rain
10:16 PM 41.0 °F 34.7 °F 37.9 °F 89% 29.49 in 2.5 mi SE 10.4 mph - 0.12 in Rain , Thunderstorm Thunderstorms and Rain
10:20 PM 41.0 °F 32.8 °F 37.9 °F 89% 29.50 in 3.0 mi SE 16.1 mph - 0.14 in Rain , Thunderstorm Rain
10:27 PM 41.0 °F 32.5 °F 37.9 °F 89% 29.50 in 2.5 mi SSE 17.3 mph 23.0 mph 0.16 in Rain , Thunderstorm Rain
10:31 PM 41.0 °F 33.9 °F 37.9 °F 89% 29.50 in 3.0 mi SE 12.7 mph 23.0 mph 0.18 in Rain Rain
10:53 PM 41.0 °F 34.7 °F 37.9 °F 89% 29.51 in 6.0 mi SSE 10.4 mph - 0.23 in Rain Rain
11:29 PM 41.0 °F 34.7 °F 37.9 °F 89% 29.47 in 2.5 mi SE 10.4 mph - 0.08 in Rain Heavy Rain
11:36 PM 41.0 °F 34.7 °F 37.9 °F 89% 29.47 in 3.0 mi SSE 10.4 mph - 0.11 in Rain Heavy Rain
11:53 PM 42.1 °F 36.6 °F 39.0 °F 89% 29.49 in 7.0 mi SSE 9.2 mph - 0.12 in Rain Light Rain